Location: Aix-en-Ergny
(50.5839°N, 1.9996°E)
Time: 03:35:37
(UTC+00:00)

Cosmos 2219 Rocket - Pass Details

Date: 23 October 2019
Orbit: 828 x 847 km, 71.0° (Epoch: 18 November)

Event Time Altitude Azimuth Distance (km) Brightness Sun altitude
Exits shadow 03:47:46 43° 329° (NNW) 1,157 2.7 -25.8°
Drops below altitude 10° 03:52:28 10° 21° (NNE) 2,449 5.0 -25.1°
Sets 03:55:02 0° 28° (NNE) 3,389 5.9 -24.7°
